Location: State Camp
(41.2367°N, 77.7828°W)
Time: 18:26:41
(UTC-04:00)

Amateur Radio Satellites - All Passes

Search period start: 27 March 2017 17:56
Search period end: 28 March 2017 17:56
Location: State Camp, 41.2367°N, 77.7828°W

Satellite Date Start Highest point End Downlink Frequencies (MHz)
Time Altitude Azimuth
MOZHAYETS 4 27 Mar 18:17:01 18:19:03 13° 298° (WNW) 18:21:05
STARS 27 Mar 18:21:10 18:25:36 79° 104° (ESE) 18:30:00 437.465
YUBILEINY 27 Mar 18:30:33 18:38:36 40° 72° (ENE) 18:46:36 435.215
CUTE 1.7 + AOD 2 27 Mar 18:37:23 18:38:50 12° 63° (ENE) 18:40:17 437.475
HO-68 27 Mar 18:39:47 18:45:45 30° 61° (ENE) 18:51:45 435.675
XW-2F 27 Mar 18:42:54 18:46:42 75° 259° (WSW) 18:50:29 145.980 - 146.000
LilacSat-2 27 Mar 18:46:24 18:50:12 62° 260° (W) 18:53:59 437.200
RS-15 27 Mar 18:50:24 18:59:57 24° 13° (NNE) 19:09:21 29.354- 29.394
CUTE-I 27 Mar 18:51:46 18:57:08 74° 257° (WSW) 19:02:32 437.470
PCSat 27 Mar 18:54:04 18:59:26 57° 57° (ENE) 19:04:45 145.827
XW-2A 27 Mar 18:59:31 19:02:09 21° 70° (ENE) 19:04:48 145.665 - 145.685
NUDT-PHONESAT 27 Mar 19:05:06 19:08:43 46° 261° (W) 19:12:20 437.300
XW-2D 27 Mar 19:10:05 19:13:30 31° 263° (W) 19:16:55 145.860 - 145.880
CUBESAT XI-V 27 Mar 19:11:06 19:14:29 20° 294° (WNW) 19:17:52 437.345
DOVE 4 27 Mar 19:13:13 19:17:21 31° 266° (W) 19:21:45 437.250
KAITUO 1B 27 Mar 19:14:05 19:17:33 35° 262° (W) 19:21:01 145.475/437.950
XW-2B 27 Mar 19:16:12 19:19:30 28° 264° (W) 19:22:48 145.730 - 145.750
XW-2C 27 Mar 19:26:53 19:29:49 21° 266° (W) 19:32:44 145.795 - 145.815
KKS-1 27 Mar 19:27:11 19:28:29 11° 300° (WNW) 19:29:46 437.445
UWE-3 27 Mar 19:30:42 19:33:15 15° 64° (ENE) 19:35:47 435.000/436.395/437.385
AAUSAT CUBESAT 2 27 Mar 19:42:57 19:45:52 19° 67° (ENE) 19:48:47 437.432
M-CUBED/EXP-1 PRIME 27 Mar 19:53:36 19:58:16 89° 96° (E) 20:02:57 437.505
Oscar 11 27 Mar 19:59:54 20:01:40 12° 63° (ENE) 20:03:25 .
STARS 27 Mar 20:00:10 20:01:17 11° 300° (WNW) 20:02:23 437.465
SEEDS 27 Mar 20:00:46 20:04:52 63° 75° (ENE) 20:09:00 437.485
CUBEBUG 2 27 Mar 20:04:31 20:09:06 51° 73° (ENE) 20:13:41 437.445
ZACube-1 27 Mar 20:07:50 20:11:10 20° 67° (ENE) 20:14:27 437.345
CUTE 1.7 + AOD 2 27 Mar 20:09:56 20:14:06 65° 259° (W) 20:18:18 437.475
Tancredo 1 27 Mar 20:19:17 20:22:04 29° 136° (SE) 20:24:53 437.200
ISS 27 Mar 20:24:44 20:27:37 30° 136° (SE) 20:30:32 437.550
HO-68 27 Mar 20:26:06 20:33:05 56° 259° (WSW) 20:40:06 435.675
YUBILEINY 27 Mar 20:27:20 20:35:26 45° 272° (W) 20:43:33 435.215
STRAND 1 27 Mar 20:30:37 20:35:42 64° 101° (E) 20:40:45 437.568
XW-2A 27 Mar 20:32:08 20:34:49 21° 265° (W) 20:37:32 145.665 - 145.685
AO-73 27 Mar 20:34:37 20:38:42 34° 71° (ENE) 20:42:44 145.935
PCSat 27 Mar 20:38:29 20:42:21 20° 254° (WSW) 20:46:12 145.827
DELFI C3 27 Mar 20:52:38 20:54:17 12° 64° (ENE) 20:55:55 145.870
AO-85 27 Mar 20:55:48 21:00:07 49° 118° (ESE) 21:04:09 145.980
RS-15 27 Mar 21:04:31 21:16:28 51° 44° (NE) 21:27:54 29.354- 29.394
UWE-3 27 Mar 21:04:35 21:09:12 61° 260° (W) 21:13:46 435.000/436.395/437.385
AAUSAT CUBESAT 2 27 Mar 21:17:21 21:21:05 34° 263° (W) 21:24:51 437.432
M-CUBED/EXP-1 PRIME 27 Mar 21:30:14 21:32:01 12° 304° (NW) 21:33:49 437.505
Oscar 11 27 Mar 21:32:58 21:37:15 64° 259° (W) 21:41:33 .
SEEDS 27 Mar 21:40:15 21:40:57 10° 271° (W) 21:41:39 437.485
CUBEBUG 2 27 Mar 21:42:53 21:45:58 17° 269° (W) 21:49:02 437.445
ZACube-1 27 Mar 21:42:54 21:47:10 40° 262° (W) 21:51:24 437.345
Tancredo 1 27 Mar 21:55:15 21:58:09 33° 333° (NNW) 22:01:05 437.200
ISS 27 Mar 22:01:02 22:04:03 34° 333° (NNW) 22:07:06 437.550
UNISAT 6 27 Mar 22:03:07 22:04:03 11° 89° (E) 22:04:59 437.425
SO-50 27 Mar 22:06:57 22:08:36 12° 36° (NE) 22:10:14 436.795
STRAND 1 27 Mar 22:11:12 22:14:20 17° 299° (WNW) 22:17:27 437.568
AO-73 27 Mar 22:11:25 22:14:57 22° 266° (W) 22:18:29 145.935
PRISM 27 Mar 22:23:44 22:27:36 36° 98° (E) 22:31:27 437.425
DELFI C3 27 Mar 22:24:47 22:28:36 52° 260° (W) 22:32:27 145.870
ESTCUBE 1 27 Mar 22:30:31 22:32:27 13° 62° (ENE) 22:34:25 437.505/2401.250
BEESAT 3 27 Mar 22:30:50 22:34:37 50° 118° (ESE) 22:38:29 437.485
AO-85 27 Mar 22:37:36 22:40:43 19° 315° (NW) 22:43:43 145.980
BEESAT 2 27 Mar 22:49:48 22:53:18 31° 114° (ESE) 22:56:50 435.950
RS-15 27 Mar 23:17:27 23:29:09 55° 249° (WSW) 23:40:20 29.354- 29.394
TIGRISAT 27 Mar 23:26:12 23:30:38 86° 101° (E) 23:34:56 435.000
FO-29 27 Mar 23:29:34 23:35:22 53° 99° (E) 23:40:36 435.910
Tancredo 1 27 Mar 23:33:17 23:35:01 14° 353° (N) 23:36:44 437.200
LO-87 27 Mar 23:34:33 23:38:07 66° 259° (W) 23:41:44 145.935 - 145.965
VELOX 1 27 Mar 23:35:43 23:38:49 19° 65° (ENE) 23:41:57 145.980
UNISAT 6 27 Mar 23:36:52 23:41:16 67° 285° (WNW) 23:45:31 437.425
ISS 27 Mar 23:39:23 23:41:16 14° 353° (N) 23:43:10 437.550
SO-50 27 Mar 23:45:24 23:49:55 69° 56° (NE) 23:54:22 436.795
EO-79 27 Mar 23:51:15 23:53:10 13° 91° (E) 23:55:03 145.935-145.965
PRISM 27 Mar 23:59:39 00:02:37 19° 294° (WNW) 00:05:35 437.425
ESTCUBE 1 28 Mar 00:04:15 00:08:41 67° 258° (WSW) 00:13:10 437.505/2401.250
SPROUT 28 Mar 00:08:25 00:12:18 34° 71° (ENE) 00:16:13 437.525
BEESAT 3 28 Mar 00:09:48 00:12:30 17° 316° (NW) 00:15:14 437.485
AIST 2D 28 Mar 00:10:53 00:14:08 36° 98° (E) 00:17:22 435.315
POLYITAN 1 28 Mar 00:18:28 00:22:01 26° 95° (E) 00:25:33 437.675
QB50P2 28 Mar 00:22:58 00:26:47 32° 97° (E) 00:30:33 145.880/145.840
50 SAT 28 Mar 00:23:48 00:26:53 32° 72° (ENE) 00:30:00 437.505
BEESAT 2 28 Mar 00:27:45 00:31:05 25° 312° (NW) 00:34:26 435.950
DUCHIFAT 1 28 Mar 00:32:57 00:36:42 31° 96° (E) 00:40:26 145.980
DX 1 28 Mar 00:43:06 00:47:09 40° 71° (ENE) 00:51:14 434.975-435.025
BUGSAT 1 28 Mar 00:44:35 00:46:40 13° 91° (E) 00:48:45 437.445
Tancredo 1 28 Mar 01:10:04 01:12:07 16° 13° (NNE) 01:14:11 437.200
VELOX 1 28 Mar 01:10:48 01:14:57 41° 261° (W) 01:19:09 145.980
FO-29 28 Mar 01:15:32 01:19:57 22° 300° (WNW) 01:24:03 435.910
ISS 28 Mar 01:16:31 01:18:44 17° 13° (NNE) 01:20:57 437.550
NANOSAT C BR1 28 Mar 01:19:31 01:23:43 68° 285° (WNW) 01:27:53 145.865
UKube-1 28 Mar 01:19:56 01:24:13 73° 75° (ENE) 01:28:33 .
EO-79 28 Mar 01:25:06 01:29:15 53° 287° (WNW) 01:33:20 145.935-145.965
SO-50 28 Mar 01:27:51 01:29:46 13° 252° (WSW) 01:31:42 436.795
Oscar 19 28 Mar 01:38:36 01:42:11 19° 92° (E) 01:45:45 437.125/150
SPROUT 28 Mar 01:45:04 01:48:17 20° 266° (W) 01:51:31 437.525
AIST 2D 28 Mar 01:45:23 01:47:01 13° 294° (WNW) 01:48:40 435.315
POLYITAN 1 28 Mar 01:54:12 01:57:44 26° 292° (WNW) 02:01:13 437.675
50 SAT 28 Mar 01:58:14 02:00:02 14° 267° (W) 02:01:51 437.505
QB50P2 28 Mar 01:59:07 02:02:23 22° 293° (WNW) 02:05:37 145.880/145.840
BEESAT 28 Mar 02:00:40 02:03:41 17° 63° (ENE) 02:06:42 436.000
Gurwin Techsat 1B 28 Mar 02:04:47 02:08:31 19° 92° (E) 02:12:14 435.225
DUCHIFAT 1 28 Mar 02:08:56 02:12:12 22° 293° (WNW) 02:15:26 145.980
ITUPSAT 1 28 Mar 02:17:01 02:20:48 24° 66° (ENE) 02:24:35 437.325
BUGSAT 1 28 Mar 02:18:17 02:22:19 48° 287° (WNW) 02:26:17 437.445
DX 1 28 Mar 02:20:31 02:23:29 18° 267° (W) 02:26:30 434.975-435.025
O/OREOS (USA 219) 28 Mar 02:21:27 02:25:33 30° 60° (ENE) 02:29:37 437.305
Tancredo 1 28 Mar 02:45:39 02:48:48 53° 32° (NNE) 02:51:56 437.200
ISS 28 Mar 02:52:31 02:55:46 55° 32° (NNE) 02:59:01 437.550
Oscar 19 28 Mar 03:16:46 03:21:47 53° 289° (WNW) 03:26:48 437.125/150
ITAMSAT 1 28 Mar 03:28:53 03:32:29 19° 92° (E) 03:36:04 435.822/435.867
BEESAT 28 Mar 03:36:19 03:41:00 56° 259° (W) 03:45:43 436.000
MOZHAYETS 4 28 Mar 03:39:24 03:43:56 64° 74° (ENE) 03:48:29
Gurwin Techsat 1B 28 Mar 03:43:35 03:48:46 54° 289° (WNW) 03:53:56 435.225
ITUPSAT 1 28 Mar 03:53:57 03:58:24 38° 262° (W) 04:02:52 437.325
AO-7 28 Mar 03:54:39 04:01:50 32° 96° (E) 04:08:59 .
O/OREOS (USA 219) 28 Mar 04:00:58 04:04:51 27° 257° (WSW) 04:08:42 437.305
Tancredo 1 28 Mar 04:22:30 04:24:39 17° 228° (SW) 04:26:46 437.200
ISS 28 Mar 04:29:43 04:31:57 17° 228° (SW) 04:34:11 437.550
CUBESAT XI-V 28 Mar 04:36:07 04:40:24 41° 71° (ENE) 04:44:44 437.345
KKS-1 28 Mar 04:45:41 04:50:07 72° 75° (ENE) 04:54:36 437.445
ITAMSAT 1 28 Mar 05:07:12 05:12:15 53° 289° (WNW) 05:17:16 435.822/435.867
M-CUBED/EXP-1 PRIME 28 Mar 05:09:05 05:09:38 10° 54° (NE) 05:10:12 437.505
STARS 28 Mar 05:17:16 05:21:39 69° 75° (ENE) 05:26:05 437.465
MOZHAYETS 4 28 Mar 05:19:34 05:21:30 12° 270° (W) 05:23:26
AO-85 28 Mar 05:26:55 05:30:38 38° 52° (NE) 05:34:24 145.980
AO-7 28 Mar 05:46:53 05:54:57 58° 295° (WNW) 06:03:00 .
STRAND 1 28 Mar 06:11:05 06:13:03 12° 59° (ENE) 06:15:02 437.568
CUBESAT XI-V 28 Mar 06:14:39 06:17:56 19° 267° (W) 06:21:15 437.345
XW-2F 28 Mar 06:17:31 06:18:23 11° 91° (E) 06:19:14 145.980 - 146.000
LilacSat-2 28 Mar 06:21:03 06:22:57 13° 92° (E) 06:24:49 437.200
KKS-1 28 Mar 06:26:16 06:27:09 10° 271° (W) 06:28:03 437.445
NUDT-PHONESAT 28 Mar 06:36:38 06:38:52 15° 93° (E) 06:41:06 437.300
M-CUBED/EXP-1 PRIME 28 Mar 06:39:39 06:43:21 75° 252° (WSW) 06:47:25 437.505
XW-2D 28 Mar 06:42:37 06:45:42 24° 95° (E) 06:48:46 145.860 - 145.880
KAITUO 1B 28 Mar 06:45:39 06:48:26 20° 94° (E) 06:51:13 145.475/437.950
BEESAT 3 28 Mar 06:47:42 06:51:18 30° 50° (NE) 06:54:53 437.485
XW-2B 28 Mar 06:48:29 06:51:43 27° 96° (E) 06:54:56 145.730 - 145.750
NO-84 28 Mar 06:54:59 06:57:51 72° 136° (SE) 07:00:42 435.350 FM
STARS 28 Mar 06:57:21 06:58:27 11° 270° (W) 06:59:33 437.465
XW-2C 28 Mar 06:58:33 07:02:03 36° 98° (E) 07:05:31 145.795 - 145.815
BEESAT 2 28 Mar 07:07:25 07:10:37 22° 46° (NE) 07:13:47 435.950
AO-85 28 Mar 07:08:01 07:10:44 18° 248° (WSW) 07:13:30 145.980
CUTE-I 28 Mar 07:08:56 07:14:05 44° 99° (E) 07:19:08 437.470
DOVE 4 28 Mar 07:11:02 07:16:22 77° 102° (ESE) 07:21:33 437.250
YUBILEINY 28 Mar 07:31:24 07:39:32 45° 88° (E) 07:47:39 435.215
AO-7 28 Mar 07:42:23 07:45:58 14° 316° (NW) 07:49:35 .
STRAND 1 28 Mar 07:46:17 07:51:27 90° 263° (W) 07:56:38 437.568
SEEDS 28 Mar 07:47:22 07:47:58 10° 89° (E) 07:48:34 437.485
XW-2F 28 Mar 07:49:11 07:52:49 48° 285° (WNW) 07:56:24 145.980 - 146.000
XW-2A 28 Mar 07:53:48 07:56:25 21° 95° (E) 07:59:00 145.665 - 145.685
LilacSat-2 28 Mar 07:53:52 07:57:25 39° 287° (WNW) 08:00:55 437.200
HO-68 28 Mar 07:54:04 08:00:11 30° 95° (E) 08:06:16 435.675
CUTE 1.7 + AOD 2 28 Mar 07:55:20 07:58:32 21° 94° (E) 08:01:44 437.475
NUDT-PHONESAT 28 Mar 08:09:35 08:12:53 32° 288° (WNW) 08:16:11 437.300
XW-2D 28 Mar 08:16:52 08:19:48 22° 291° (WNW) 08:22:42 145.860 - 145.880
KAITUO 1B 28 Mar 08:19:21 08:22:25 25° 290° (WNW) 08:25:29 145.475/437.950
XW-2B 28 Mar 08:23:00 08:25:45 20° 292° (WNW) 08:28:28 145.730 - 145.750
BEESAT 3 28 Mar 08:25:29 08:28:47 25° 247° (WSW) 08:32:03 437.485
XW-2C 28 Mar 08:33:46 08:35:56 15° 294° (WNW) 08:38:06 145.795 - 145.815
NO-84 28 Mar 08:34:08 08:35:42 14° 335° (NNW) 08:37:16 435.350 FM
BEESAT 2 28 Mar 08:44:44 08:48:32 39° 244° (WSW) 08:52:17 435.950
CUTE-I 28 Mar 08:49:35 08:53:49 24° 296° (WNW) 08:58:02 437.470
DOVE 4 28 Mar 08:50:24 08:53:20 15° 299° (WNW) 08:56:14 437.250
UWE-3 28 Mar 08:54:52 08:58:27 25° 95° (E) 09:01:56 435.000/436.395/437.385
AAUSAT CUBESAT 2 28 Mar 08:59:03 09:02:50 33° 97° (E) 09:06:37 437.432
UNISAT 6 28 Mar 09:01:45 09:03:26 12° 61° (ENE) 09:05:06 437.425
PRISM 28 Mar 09:13:10 09:16:33 26° 68° (ENE) 09:19:57 437.425
SEEDS 28 Mar 09:19:54 09:24:03 65° 285° (WNW) 09:28:13 437.485
Oscar 11 28 Mar 09:20:39 09:24:03 22° 94° (E) 09:27:26 .
XW-2A 28 Mar 09:26:33 09:29:05 20° 291° (WNW) 09:31:36 145.665 - 145.685
YUBILEINY 28 Mar 09:28:19 09:36:22 40° 288° (WNW) 09:44:26 435.215
CUTE 1.7 + AOD 2 28 Mar 09:30:39 09:34:25 32° 289° (WNW) 09:38:11 437.475
ZACube-1 28 Mar 09:31:10 09:35:06 37° 97° (E) 09:38:56 437.345
CUBEBUG 2 28 Mar 09:31:58 09:36:21 72° 285° (WNW) 09:40:34 437.445
PCSat 28 Mar 09:35:30 09:40:43 52° 114° (ESE) 09:45:59 145.827
FO-29 28 Mar 09:40:16 09:46:45 30° 64° (ENE) 09:52:50 435.910
HO-68 28 Mar 09:41:14 09:48:09 53° 293° (WNW) 09:55:04 435.675
AO-73 28 Mar 09:58:17 10:02:29 70° 101° (ESE) 10:06:35 145.935
DELFI C3 28 Mar 10:02:28 10:05:19 19° 94° (E) 10:08:10 145.870
TIGRISAT 28 Mar 10:24:01 10:28:42 74° 75° (ENE) 10:33:21 435.000
UWE-3 28 Mar 10:31:15 10:34:51 26° 292° (WNW) 10:38:21 435.000/436.395/437.385
UNISAT 6 28 Mar 10:34:47 10:39:29 80° 258° (WSW) 10:44:09 437.425
AAUSAT CUBESAT 2 28 Mar 10:35:02 10:38:05 20° 293° (WNW) 10:41:07 437.432
EO-79 28 Mar 10:44:56 10:45:56 11° 61° (ENE) 10:46:56 145.935-145.965
AIST 2D 28 Mar 10:46:24 10:48:24 15° 67° (ENE) 10:50:25 435.315
PRISM 28 Mar 10:48:24 10:51:45 25° 264° (W) 10:55:09 437.425
Oscar 11 28 Mar 10:56:24 11:00:12 31° 290° (WNW) 11:03:59 .
ZACube-1 28 Mar 11:08:11 11:11:06 18° 294° (WNW) 11:13:59 437.345
POLYITAN 1 28 Mar 11:11:11 11:14:24 21° 67° (ENE) 11:17:37 437.675
QB50P2 28 Mar 11:15:36 11:19:04 25° 68° (ENE) 11:22:34 145.880/145.840
PCSat 28 Mar 11:19:57 11:24:25 25° 312° (NW) 11:28:54 145.827
FO-29 28 Mar 11:23:39 11:31:21 60° 260° (W) 11:38:35 435.910
DUCHIFAT 1 28 Mar 11:24:48 11:28:12 24° 68° (ENE) 11:31:37 145.980
RS-15 28 Mar 11:29:49 11:39:07 28° 101° (E) 11:48:37 29.354- 29.394
HO-68 28 Mar 11:33:20 11:34:17 10° 313° (NW) 11:35:14 435.675
BUGSAT 1 28 Mar 11:35:34 11:36:36 11° 62° (ENE) 11:37:39 437.445
DELFI C3 28 Mar 11:36:35 11:40:10 32° 289° (WNW) 11:43:43 145.870
AO-73 28 Mar 11:37:13 11:38:06 11° 298° (WNW) 11:38:58 145.935
NO-84 28 Mar 11:53:00 11:53:19 10° 20° (NNE) 11:53:38 435.350 FM
ESTCUBE 1 28 Mar 11:57:02 12:00:47 25° 95° (E) 12:04:30 437.505/2401.250
TIGRISAT 28 Mar 12:04:32 12:05:50 11° 271° (W) 12:07:09 435.000
NANOSAT C BR1 28 Mar 12:10:55 12:15:12 86° 72° (ENE) 12:19:29 145.865
EO-79 28 Mar 12:16:48 12:21:04 75° 258° (WSW) 12:25:22 145.935-145.965
AIST 2D 28 Mar 12:18:07 12:21:20 33° 263° (W) 12:24:34 435.315
LO-87 28 Mar 12:34:56 12:38:30 52° 285° (WNW) 12:42:02 145.935 - 145.965
POLYITAN 1 28 Mar 12:46:02 12:49:57 34° 263° (W) 12:53:54 437.675
QB50P2 28 Mar 12:51:01 12:54:44 28° 264° (W) 12:58:28 145.880/145.840
Oscar 19 28 Mar 12:55:15 12:59:32 28° 66° (ENE) 13:03:50 437.125/150
DUCHIFAT 1 28 Mar 13:00:00 13:03:43 29° 264° (W) 13:07:29 145.980
VELOX 1 28 Mar 13:00:34 13:04:42 35° 98° (E) 13:08:47 145.980
BUGSAT 1 28 Mar 13:07:07 13:11:21 74° 259° (WSW) 13:15:37 437.445
UKube-1 28 Mar 13:09:01 13:10:38 12° 91° (E) 13:12:15 .
AO-7 28 Mar 13:09:55 13:10:33 10° 40° (NE) 13:11:11 .
50 SAT 28 Mar 13:20:36 13:23:52 34° 98° (E) 13:27:06 437.505
Gurwin Techsat 1B 28 Mar 13:25:33 13:30:09 31° 67° (ENE) 13:34:48 435.225
NO-84 28 Mar 13:28:25 13:31:27 46° 38° (NE) 13:34:43 435.350 FM
SPROUT 28 Mar 13:29:22 13:33:39 67° 101° (ESE) 13:37:53 437.525
ESTCUBE 1 28 Mar 13:33:36 13:37:34 31° 291° (WNW) 13:41:31 437.505/2401.250
RS-15 28 Mar 13:38:06 13:50:09 84° 302° (WNW) 14:02:39 29.354- 29.394
SO-50 28 Mar 14:00:20 14:03:54 22° 112° (ESE) 14:07:27 436.795
DX 1 28 Mar 14:06:49 14:11:14 77° 104° (ESE) 14:15:37 434.975-435.025
Oscar 19 28 Mar 14:34:02 14:38:42 36° 263° (W) 14:43:24 437.125/150
VELOX 1 28 Mar 14:37:29 14:40:55 22° 294° (WNW) 14:44:20 145.980
UKube-1 28 Mar 14:42:45 14:47:03 61° 287° (WNW) 14:51:18 .
ITAMSAT 1 28 Mar 14:46:28 14:50:58 30° 66° (ENE) 14:55:29 435.822/435.867
AO-7 28 Mar 14:53:27 15:01:12 45° 62° (ENE) 15:08:56 .
50 SAT 28 Mar 14:54:43 14:56:36 14° 294° (WNW) 14:58:28 437.505
Gurwin Techsat 1B 28 Mar 15:05:14 15:10:01 34° 263° (W) 15:14:50 435.225
NO-84 28 Mar 15:06:40 15:08:48 16° 232° (SW) 15:11:02 435.350 FM
SPROUT 28 Mar 15:07:25 15:08:59 12° 298° (WNW) 15:10:33 437.525
MOZHAYETS 4 28 Mar 15:35:46 15:38:19 15° 91° (E) 15:40:51
BEESAT 28 Mar 15:36:26 15:40:48 36° 98° (E) 15:45:10 436.000
SO-50 28 Mar 15:39:40 15:44:07 43° 309° (NW) 15:48:30 436.795
DX 1 28 Mar 15:45:34 15:46:47 11° 299° (WNW) 15:47:58 434.975-435.025
ITUPSAT 1 28 Mar 15:53:56 15:58:36 53° 100° (E) 16:03:14 437.325
RS-15 28 Mar 15:54:10 16:04:48 33° 330° (NNW) 16:15:35 29.354- 29.394
ITAMSAT 1 28 Mar 16:25:36 16:30:19 34° 263° (W) 16:35:04 435.822/435.867
O/OREOS (USA 219) 28 Mar 16:33:42 16:37:45 33° 105° (ESE) 16:41:52 437.305
KKS-1 28 Mar 16:38:15 16:40:30 14° 91° (E) 16:42:44 437.445
AO-7 28 Mar 16:46:10 16:53:56 42° 260° (W) 17:01:44 .
CUTE-I 28 Mar 16:56:07 16:56:50 10° 56° (NE) 16:57:33 437.470
STARS 28 Mar 17:08:36 17:10:24 12° 90° (E) 17:12:12 437.465
MOZHAYETS 4 28 Mar 17:11:21 17:15:48 53° 287° (WNW) 17:20:13
BEESAT 28 Mar 17:14:34 17:18:23 24° 294° (WNW) 17:22:11 436.000
XW-2D 28 Mar 17:25:11 17:26:58 13° 65° (ENE) 17:28:44 145.860 - 145.880
KAITUO 1B 28 Mar 17:27:53 17:28:38 10° 64° (ENE) 17:29:22 145.475/437.950
XW-2B 28 Mar 17:30:47 17:32:55 15° 66° (ENE) 17:35:04 145.730 - 145.750
ITUPSAT 1 28 Mar 17:32:54 17:36:00 17° 297° (WNW) 17:39:05 437.325
XW-2C 28 Mar 17:40:24 17:43:07 19° 68° (ENE) 17:45:51 145.795 - 145.815
YUBILEINY 28 Mar 17:41:55 17:48:19 22° 64° (ENE) 17:54:42 435.215
